Flag for U.S.A. Weather past 2 weeks in Talkeetna, Alaska, U.S.A.

Now
66 °F

Scattered clouds.


Feels Like: 66 °F
Forecast: 50 / 70 °F
Wind: 3 mph from Southwest

Location: Talkeetna Weather Reporting Station

Current Time: Aug 20, 2014 at 9:05:46 PM

Latest Report: Aug 20, 2014 at 7:53 PM


Visibility: 10 mi

Pressure: 30.07 "Hg

Humidity: 54%

Dew point: 49 °F

Location of TalkeetnaLocation

Historic Weather in Talkeetna — Graph

°F

Talkeetna temperature yesterday

Maximum temperature yesterday: 71 °F (at 4:53 PM)
Minimum temperature yesterday: 50 °F (at 5:58 AM)
Average temperature yesterday: 60 °F

Past Weeks' High & Low Weather Summary

 TemperatureHumidityPressure
High75 °F (Aug 10, 4:53 PM)97% (Aug 6, 11:53 PM)30.09 "Hg (Aug 6, 11:53 PM)
Low45 °F (Aug 12, 5:53 AM)36% (Aug 10, 5:53 PM)29.57 "Hg (Aug 15, 12:03 AM)
Average58 °F76%29.75 "Hg
* Reported Aug 5 7:53 PM — Aug 20 7:53 PM, Talkeetna, Weather by CustomWeather, © 2014

Note: Actual official high and low records may vary slightly from our data, if they occured in-between our weather recording intervals... More about our weather records

Advertising

Talkeetna weather history for previous 24 hours

 ConditionsComfort  
Time TempWeatherWind HumidityBarometerVisibility
7:53 PM
Aug 20
66 °FScattered clouds.3 mph54%30.07 "Hg10 mi
6:53 PM66 °FPassing clouds.No wind65%30.07 "Hg10 mi
5:53 PM66 °FScattered clouds.5 mph63%30.07 "Hg10 mi
4:53 PM65 °FScattered clouds.7 mph66%30.07 "Hg10 mi
3:53 PM65 °FScattered clouds.5 mph63%30.07 "Hg10 mi
2:53 PM63 °FScattered clouds.5 mph65%30.08 "Hg10 mi
1:53 PM63 °FSunny.6 mph68%30.09 "Hg10 mi
12:53 PM59 °FScattered clouds.3 mph75%30.09 "Hg10 mi
11:53 AM55 °FScattered clouds.No wind87%30.09 "Hg10 mi
11:00 AM54 °FMore clouds than sun.No wind80%30.09 "Hg10 mi
9:53 AM52 °FOvercast.No wind89%30.09 "Hg10 mi
8:53 AM50 °FOvercast.No wind89%30.07 "Hg10 mi
7:53 AM49 °FOvercast.No wind93%30.06 "Hg10 mi
6:53 AM46 °FPassing clouds.No wind89%30.06 "Hg10 mi
5:53 AM45 °FClear.No wind90%30.04 "Hg10 mi
4:53 AM46 °FPassing clouds.No wind93%30.03 "Hg10 mi
3:53 AM48 °FPassing clouds.No wind93%30.02 "Hg10 mi
2:53 AM50 °FOvercast.No wind89%30.02 "Hg10 mi
1:53 AM50 °FPassing clouds.No wind93%30.00 "Hg10 mi
12:53 AM51 °FClear.No wind92%29.99 "Hg10 mi
11:53 PM
Aug 19
52 °FClear.No wind93%29.98 "Hg10 mi
10:53 PM57 °FClear.No wind90%29.96 "Hg10 mi
9:53 PM59 °FSunny.No wind84%29.95 "Hg10 mi
Weather by CustomWeather, © 2014

See weather overviewHow to use our weather pages